Location: Unspecified
(41.1850°N, 73.2650°W)
Time: 20:42:18
(UTC+00:00)

Meteor 1-26 Rocket - Pass Details

Date: 14 December 2025
Orbit: 807 x 926 km, 81.3° (Epoch: 12 January)

Event Time Altitude Azimuth Distance (km) Brightness Sun altitude
Rises 22:38:37 0° 180° (S) 3,327 7.6 -13.4°
Reaches altitude 10° 22:41:01 10° 177° (S) 2,391 6.8 -13.8°
Maximum altitude 22:46:20 66° 96° (E) 881 4.1 -14.8°
Drops below altitude 10° 22:51:41 10° 15° (NNE) 2,402 6.3 -15.7°
Enters shadow 22:53:28 - 13° (NNE) 3,097 6.8 -16.0°
